GFSSE_500_spd_273.txt.gz
Wind_Speed
10 11 11 12 12 11 9 9 9 10 10 10 12 11 11 10 9 13 15 13 11 11 10 10 11 11 11 10 10 10 10 10 9 8 8 7 8 9 9 7 6 6 6
8 9 9 11 11 10 9 10 10 12 12 13 11 10 11 8 9 9 11 11 10 10 11 10 10 10 10 9 9 10 10 9 10 10 8 7 8 9 9 7 6 5 4
7 8 8 9 9 9 9 11 10 12 12 12 11 11 10 9 9 8 7 8 10 9 9 9 9 10 9 8 7 8 9 10 11 9 7 9 8 10 9 8 6 6 5
6 8 8 9 9 9 9 10 10 10 10 10 11 10 9 8 8 8 7 6 5 6 8 7 7 9 8 5 5 6 8 8 8 5 7 8 7 10 9 7 7 7 7
6 9 9 9 8 8 7 8 9 9 9 9 10 10 10 9 8 9 7 5 2 2 4 5 4 6 7 4 3 5 5 6 7 5 6 7 8 11 10 9 7 7 6
6 6 8 9 7 7 7 7 9 9 10 10 9 9 10 9 8 8 7 5 3 2 2 3 2 2 2 3 2 1 3 6 5 7 5 7 8 11 10 8 7 6 5
3 3 5 7 7 6 6 7 8 8 8 9 8 7 8 9 8 6 6 4 4 2 2 1 2 1 1 1 1 1 3 6 7 7 5 6 8 8 9 9 8 7 7
1 1 3 4 6 7 7 6 7 7 6 6 6 4 5 6 5 6 5 3 3 2 1 1 2 2 1 1 1 1 1 4 4 1 4 2 3 6 8 8 7 8 8
2 2 1 2 4 7 7 5 4 5 6 5 5 5 6 6 3 3 6 2 2 1 1 1 1 1 1 2 2 1 2 2 2 1 4 2 2 6 7 6 5 7 8
2 1 2 1 1 4 5 2 2 6 7 6 5 4 6 7 5 3 3 4 2 1 0 1 1 1 2 3 3 3 5 4 3 2 3 1 2 4 6 4 3 4 5
4 3 3 3 2 1 2 3 4 4 5 7 6 5 6 7 8 4 3 5 4 2 2 2 3 3 3 3 3 2 5 8 9 2 3 1 3 3 4 2 2 2 3
7 6 5 4 2 2 2 2 1 3 5 5 7 7 9 9 10 7 3 5 4 3 3 3 3 3 4 4 4 3 5 6 5 7 1 4 7 5 1 2 1 1 1
8 9 7 6 3 3 3 2 2 2 3 3 4 7 11 14 9 9 5 5 4 3 4 4 4 4 4 4 6 5 4 7 3 5 6 5 5 5 4 3 1 1 1
9 7 8 9 4 4 4 3 4 4 3 3 7 8 10 7 4 10 5 4 6 4 5 6 5 6 6 7 6 8 8 6 6 4 3 5 5 5 6 4 3 3 2
9 6 6 9 7 7 6 5 1 2 3 4 3 5 6 4 1 5 5 5 7 6 6 6 7 7 6 5 8 9 9 9 6 7 6 8 9 6 6 5 5 4 4
8 9 4 6 8 7 7 6 5 6 4 4 7 6 4 3 1 5 4 10 8 4 3 6 9 10 11 9 8 9 9 11 8 5 7 6 5 6 7 6 4 5 4
6 7 8 8 7 8 8 6 6 4 3 4 6 6 7 8 7 5 6 7 2 3 5 7 8 9 10 10 11 12 8 9 9 5 7 5 7 6 7 5 5 6 6
12 5 4 6 8 9 10 6 5 7 8 5 3 6 8 7 8 9 7 6 6 7 8 9 9 11 13 10 10 13 12 8 7 6 6 7 6 6 6 7 8 6 6
21 10 10 4 8 9 8 4 6 9 11 10 7 11 9 10 5 7 8 9 12 11 12 13 13 14 11 11 12 3 1 6 6 7 7 6 6 4 6 6 7 6 7
15 16 10 6 2 3 6 3 7 8 10 12 10 12 13 11 11 11 12 14 9 12 13 15 15 16 18 16 20 11 3 5 8 6 9 7 6 7 6 7 7 7 6
17 14 8 8 7 6 5 3 2 7 6 10 7 7 11 14 13 15 14 14 13 14 17 16 16 18 19 20 18 14 10 9 8 8 9 8 7 4 6 6 6 6 6
22 17 13 10 9 7 5 4 6 8 7 7 4 6 6 11 14 11 14 16 13 15 14 18 18 18 21 21 22 22 16 12 11 9 9 8 8 5 5 3 5 4 6
17 18 17 14 13 11 6 6 9 8 7 13 10 8 8 8 11 7 4 8 9 11 16 17 16 16 18 21 19 22 22 17 15 13 12 8 12 12 10 8 7 6 5
14 15 14 14 13 14 14 13 11 9 8 9 10 12 13 12 10 5 2 2 4 7 11 14 15 16 19 20 19 21 21 19 19 20 20 13 14 18 15 14 12 12 9
8 11 10 9 10 11 11 11 10 8 7 6 7 8 7 10 12 8 4 3 4 7 9 12 15 16 16 18 18 19 19 19 19 21 22 20 19 19 20 18 17 17 15
8 9 11 12 11 10 9 8 7 8 9 8 7 7 7 6 8 8 8 7 7 8 9 11 13 15 17 17 17 18 20 21 21 19 18 20 22 20 23 22 24 22 21

GFSSE_500_spd_276.txt.gz
Wind_Speed
12 12 12 12 14 13 13 11 9 9 10 10 10 12 12 11 14 14 12 12 12 10 9 9 10 11 11 11 11 10 12 12 10 9 9 7 8 9 9 7 7 7 6
11 11 11 12 14 13 13 12 11 11 12 12 10 9 10 9 12 13 14 12 10 8 8 8 10 10 10 11 10 10 11 10 11 10 8 8 6 8 8 7 6 7 6
10 11 10 10 12 11 12 13 13 11 13 12 12 11 11 11 11 9 9 8 9 8 8 8 9 9 9 10 9 9 9 7 8 9 8 8 7 6 7 7 6 6 5
9 9 9 9 11 10 12 13 12 12 13 12 13 14 12 9 7 8 6 5 6 7 6 7 8 8 8 8 7 8 6 7 7 6 8 7 8 5 6 7 6 6 5
8 9 10 8 10 10 11 12 12 13 12 12 12 12 11 10 8 7 7 6 5 5 5 4 4 5 6 6 5 5 6 7 4 7 6 7 6 5 7 7 6 5 5
7 8 9 8 9 9 9 10 10 11 12 11 11 12 11 11 9 9 8 8 6 4 4 4 2 2 3 4 3 4 6 4 3 3 4 5 4 5 5 8 6 5 3
5 6 7 7 7 8 8 9 8 7 8 10 10 10 10 10 11 11 9 9 8 6 6 6 5 4 4 3 3 2 2 3 2 2 4 3 2 3 4 7 7 9 8
2 3 4 6 6 6 7 8 8 7 7 7 7 6 8 9 8 9 10 7 6 5 6 7 8 8 6 5 3 2 1 2 2 4 4 2 1 2 3 5 7 9 10
1 2 3 5 7 5 7 6 5 6 6 5 5 5 6 7 6 6 6 6 4 4 4 5 6 8 8 7 4 1 2 3 3 3 3 2 0 2 2 3 5 7 8
2 2 3 3 5 6 4 3 4 6 6 5 5 5 5 5 5 4 3 5 6 4 2 3 3 6 8 8 8 4 1 3 5 3 3 3 3 2 2 3 2 5 7
4 4 3 2 3 5 4 4 4 5 4 5 4 4 4 4 4 4 2 2 5 6 3 4 5 5 6 7 7 7 4 5 9 5 5 1 1 2 1 1 3 2 4
4 4 3 2 2 3 3 3 2 3 3 3 7 4 6 5 7 5 5 1 3 4 4 4 5 6 7 8 7 8 7 3 5 6 6 7 8 2 3 2 1 2 1
3 3 4 2 1 2 3 3 2 1 1 3 5 6 10 8 2 9 3 3 2 3 4 5 5 6 8 9 9 8 7 5 5 6 6 8 5 6 3 4 3 2 2
2 3 4 4 4 3 3 4 5 2 3 3 2 5 9 8 9 6 7 5 6 5 6 4 4 8 8 9 10 10 9 7 6 8 7 8 8 4 5 4 4 3 3
5 6 6 5 6 6 5 4 4 6 9 5 4 3 4 3 2 4 7 6 5 7 5 8 6 8 7 8 10 9 12 10 7 9 9 10 10 8 8 6 5 5 4
6 10 8 6 7 5 4 5 7 7 5 5 6 6 3 2 2 3 1 8 10 7 5 4 6 8 10 11 10 10 11 12 10 11 10 9 6 7 9 7 6 7 6
8 10 12 9 8 8 10 10 8 7 8 8 7 8 7 6 4 5 4 3 6 7 3 7 8 10 12 13 8 9 10 12 10 11 12 8 9 9 8 8 9 10 8
2 6 13 12 11 10 11 10 11 8 7 8 8 9 6 7 7 7 8 7 7 6 6 8 8 11 12 12 13 15 11 11 10 10 10 10 7 9 7 8 10 12 10
14 9 5 5 4 8 10 7 8 8 11 9 9 13 12 10 9 12 9 11 11 9 9 11 11 12 14 14 13 14 9 7 9 10 10 10 10 9 8 10 8 11 10
15 12 8 5 6 3 7 5 5 8 9 9 8 11 14 14 16 16 13 17 17 11 7 11 13 13 14 16 16 14 8 9 11 12 10 11 13 11 11 11 10 11 11
14 15 8 10 9 8 3 2 6 7 7 7 5 11 10 14 14 17 18 18 17 10 8 13 14 16 18 18 18 13 13 14 12 11 11 10 14 11 9 9 11 11 11
15 15 13 10 9 6 5 3 5 5 6 7 2 3 4 8 10 14 18 17 19 15 12 18 18 19 20 17 16 18 16 12 19 16 10 11 12 10 10 9 8 9 9
15 14 14 13 10 7 4 2 3 4 6 6 5 7 7 7 9 5 2 8 13 12 12 13 14 16 18 19 17 17 19 18 16 19 16 15 16 16 16 16 13 10 9
11 11 11 10 9 8 7 7 7 7 6 6 7 8 8 9 8 7 2 1 4 6 8 10 12 13 12 17 17 16 17 17 16 17 20 19 18 19 22 22 20 17 14
6 6 8 8 8 8 8 8 8 7 7 7 8 8 9 10 9 7 5 3 4 6 7 9 10 12 13 13 13 14 16 17 15 15 12 15 20 22 23 25 25 23 21
3 7 7 7 7 8 9 9 9 10 9 8 9 6 6 7 8 8 6 5 4 4 4 6 8 10 13 15 16 15 14 15 18 19 20 19 20 23 24 25 27 28 26

GFSSE_500_spd_279.txt.gz
Wind_Speed
13 13 13 12 14 15 14 14 12 12 11 11 11 11 11 12 12 13 12 11 10 11 12 9 8 7 8 8 9 8 9 9 9 10 10 8 7 6 7 6 7 8 8
11 13 12 12 16 16 16 14 12 12 11 13 10 7 8 8 11 13 13 12 11 10 9 9 8 8 8 8 8 7 7 9 9 10 10 10 7 6 4 5 5 6 6
9 12 11 12 15 17 16 15 15 14 13 11 11 9 8 8 9 12 12 11 10 8 7 8 8 8 7 9 8 7 7 7 13 10 9 8 7 5 5 6 5 5 5
8 11 10 12 13 15 16 15 15 14 14 13 11 12 13 10 9 9 9 6 6 7 6 6 8 8 8 8 7 7 7 8 10 9 8 7 8 7 6 5 4 6 5
8 11 10 11 11 12 13 14 15 14 13 14 14 14 14 13 11 8 7 6 5 6 6 3 4 5 7 6 6 7 7 6 6 7 7 6 7 7 7 5 5 4 3
7 10 10 10 10 10 11 13 13 13 12 13 13 14 14 13 12 10 8 7 7 7 8 7 6 5 6 6 5 6 7 6 5 6 6 6 5 5 5 6 6 4 1
4 7 8 8 9 9 10 11 11 10 11 10 11 11 10 11 11 11 9 7 7 8 8 9 9 8 7 7 6 6 7 7 6 5 5 5 5 3 3 4 6 5 3
1 4 6 6 7 8 9 8 7 7 7 6 6 6 7 7 6 7 8 8 7 7 6 7 7 8 9 7 6 5 5 6 7 7 5 4 4 4 2 3 4 5 4
2 3 4 5 6 7 7 6 6 5 4 4 3 3 4 5 5 5 5 7 8 8 7 6 6 6 8 8 7 5 6 7 8 7 2 5 3 3 2 2 2 2 4
2 4 5 4 4 5 4 3 4 5 5 5 3 3 3 3 3 3 4 6 4 6 7 7 6 7 7 6 6 6 5 5 6 6 6 6 4 3 3 0 1 3 2
3 4 5 5 5 5 4 4 4 4 3 5 3 3 4 5 2 1 2 2 2 3 6 7 7 7 6 6 5 6 7 7 9 6 7 6 6 6 3 2 0 1 3
2 4 6 5 6 6 5 5 4 3 2 0 3 4 7 7 7 3 1 0 1 3 4 6 6 6 7 6 6 5 6 7 8 6 8 7 10 8 1 3 3 1 2
5 6 7 6 7 8 7 7 6 5 2 2 3 6 7 7 4 8 3 2 3 5 6 7 8 7 7 8 8 6 6 7 8 7 7 6 11 7 4 4 4 3 3
9 9 8 8 7 6 6 6 6 5 3 5 5 4 8 8 7 8 1 1 3 7 8 8 8 10 9 10 9 8 8 8 9 10 10 8 10 8 6 6 5 4 4
10 10 10 9 8 6 5 5 4 6 3 7 8 4 6 5 3 6 5 3 6 7 6 8 9 10 9 11 10 10 10 9 10 11 11 13 10 10 6 5 8 7 6
2 7 8 8 10 8 6 6 5 4 5 7 5 7 6 6 6 5 4 5 8 9 9 8 6 6 7 9 9 9 10 11 11 13 13 12 10 9 9 8 7 9 8
8 3 7 8 7 8 6 6 6 5 6 5 7 7 6 8 6 7 7 7 9 8 10 10 9 7 8 8 9 11 12 11 13 13 14 14 11 10 12 10 11 8 11
3 6 11 7 6 5 5 7 8 9 7 6 8 10 8 9 10 9 10 10 11 13 11 13 12 11 11 12 10 12 16 15 12 12 13 14 13 12 11 10 11 11 10
10 6 6 6 9 12 9 7 7 10 9 9 12 12 13 13 13 12 11 12 13 15 16 17 11 12 14 13 14 13 15 12 10 10 12 15 13 13 12 12 12 12 11
12 15 9 6 3 7 10 8 6 6 6 10 12 15 14 14 17 18 18 17 19 18 20 11 11 15 17 17 19 20 17 12 13 13 15 14 15 13 14 14 14 12 13
14 15 12 11 9 7 5 5 5 5 6 6 9 11 11 13 15 17 21 18 19 20 14 10 13 14 20 22 21 20 15 16 18 17 14 16 17 16 14 14 14 14 14
14 13 13 12 10 7 7 7 7 5 8 3 6 6 6 10 11 15 17 16 19 17 14 14 15 18 22 19 16 16 19 20 19 17 21 17 18 15 17 14 12 14 14
11 11 13 13 14 12 10 9 10 6 4 5 3 4 6 5 8 9 10 10 8 11 14 13 12 13 17 19 18 15 18 18 21 19 17 25 20 18 21 19 15 14 15
7 8 10 11 11 10 10 8 8 7 8 6 6 7 7 8 8 8 7 6 5 6 8 8 10 11 10 13 15 14 15 15 17 18 19 22 23 23 24 23 22 22 20
3 4 6 7 7 8 7 8 8 7 7 9 8 10 10 8 7 6 6 6 6 6 7 8 9 10 10 10 11 12 12 12 15 16 17 18 16 21 21 24 28 28 25
8 5 4 8 9 9 9 8 8 8 8 7 9 10 10 10 9 9 6 6 6 7 7 8 9 9 9 11 12 12 12 10 9 11 15 14 18 21 28 24 28 30 30

GFSSE_500_spd_285.txt.gz
Wind_Speed
15 16 14 13 13 14 15 17 19 18 17 16 17 16 17 15 15 14 12 13 13 14 14 14 13 12 11 10 11 11 11 11 10 9 9 9 8 7 5 4 4 4 4
14 16 15 14 13 15 15 17 19 16 14 12 13 14 15 12 12 13 13 13 13 13 13 12 11 10 10 10 9 8 10 9 8 9 9 9 8 7 6 4 3 2 3
13 14 16 15 14 16 16 16 17 16 14 11 12 11 10 9 10 11 13 13 12 11 10 10 9 9 9 9 8 9 8 8 8 8 9 8 8 8 7 5 3 2 2
12 13 14 14 14 16 17 17 17 17 13 11 11 11 10 8 8 9 11 12 11 9 8 8 8 8 7 7 8 8 6 6 7 7 7 7 7 7 7 5 3 2 1
10 11 12 12 13 15 17 17 18 17 15 14 12 13 13 11 10 9 10 9 8 8 6 5 4 5 6 6 6 6 6 6 6 6 7 7 6 6 7 6 4 2 1
9 9 10 12 12 13 15 15 16 17 17 16 15 13 12 11 11 11 10 9 8 8 8 7 5 4 4 4 5 5 6 6 6 7 6 6 6 5 6 7 6 4 2
6 7 9 10 11 11 12 14 14 14 14 13 13 11 11 11 10 10 9 8 8 8 8 8 6 4 4 3 3 3 5 5 5 3 2 4 5 4 5 6 7 6 5
5 5 7 8 10 10 10 10 10 10 10 9 9 9 8 7 7 8 8 7 7 8 8 7 5 4 4 3 3 3 4 3 3 6 7 5 4 4 4 4 5 6 7
5 5 5 7 9 10 8 7 7 8 8 7 7 6 5 5 5 6 6 7 7 7 7 5 5 4 4 5 5 3 3 2 1 2 4 4 3 3 2 2 3 3 4
5 6 7 6 6 8 7 6 5 6 7 6 6 4 4 3 3 4 3 2 5 4 5 3 4 5 5 4 4 4 3 2 2 1 2 2 1 1 1 2 3 2 3
6 7 8 7 5 5 5 4 4 5 7 8 7 4 4 2 3 2 1 1 3 3 4 4 4 6 7 5 5 5 4 2 2 2 1 2 2 4 4 5 4 3 3
7 8 9 8 8 6 5 4 2 2 3 4 6 6 5 5 5 5 2 2 3 4 4 4 5 5 6 6 7 7 6 5 2 3 2 3 4 7 5 8 6 5 4
8 9 9 9 8 7 6 6 4 2 2 3 4 6 6 6 3 7 4 2 1 2 3 5 4 5 6 7 9 10 9 8 5 5 5 6 5 4 4 6 7 7 7
10 10 8 8 7 6 7 6 6 4 2 1 1 3 5 5 7 2 3 3 2 3 6 8 7 6 6 6 9 9 12 11 15 5 6 6 6 6 6 4 8 8 8
10 8 6 5 6 5 5 6 4 4 2 1 2 1 1 3 3 2 2 4 4 4 4 7 8 7 7 7 7 8 6 10 15 11 7 8 8 8 9 9 5 9 10
7 9 5 5 6 7 6 6 4 3 3 3 3 2 1 2 1 2 4 4 5 11 16 11 11 9 10 9 7 7 7 7 10 9 10 8 8 9 10 9 10 6 10
6 6 8 8 8 8 7 6 4 3 3 4 4 3 1 3 4 6 7 8 11 14 13 9 9 9 10 13 12 14 11 8 10 7 13 13 12 11 11 9 9 7 7
2 2 11 11 8 8 7 6 5 5 5 4 4 4 5 6 7 8 9 10 13 14 13 12 12 13 15 13 16 18 16 20 14 12 9 13 12 14 10 11 9 8 9
5 4 9 9 10 8 7 5 5 7 5 6 5 7 8 10 11 12 13 14 13 17 15 15 15 11 8 12 17 18 20 19 17 10 12 9 10 13 12 11 11 10 10
9 5 6 8 8 8 9 6 5 3 3 7 7 8 7 9 8 10 10 11 15 18 17 13 15 13 13 14 18 19 20 17 12 12 14 12 13 15 12 13 12 13 12
11 9 8 8 9 9 9 5 2 5 9 9 5 4 6 6 7 10 11 11 14 15 17 15 12 11 12 14 16 19 18 16 14 14 15 14 14 17 15 14 14 14 14
12 11 9 9 10 10 8 8 9 7 5 8 6 5 6 8 8 9 9 9 10 9 8 9 10 10 13 11 12 14 19 21 11 13 17 15 16 15 18 16 15 16 14
8 8 10 10 10 11 9 8 6 5 6 7 5 5 5 6 7 7 7 9 9 9 7 4 6 8 9 9 10 11 14 16 15 11 11 14 15 16 15 19 18 16 17
4 4 6 6 6 6 5 4 3 1 2 4 4 3 4 5 5 6 7 6 7 7 6 5 5 7 7 7 9 9 11 11 10 12 11 13 17 14 16 17 20 23 21
7 5 4 2 3 3 2 0 2 4 5 6 6 6 7 6 6 6 6 6 5 5 5 5 5 5 7 8 10 11 11 11 12 12 11 13 12 15 15 20 16 21 26
9 9 7 6 4 3 2 4 4 4 5 7 8 8 10 11 7 6 5 5 5 5 4 4 4 5 7 8 9 10 10 11 13 14 14 14 15 15 18 18 12 17 26

GFSSE_500_spd_288.txt.gz
Wind_Speed
15 15 15 14 15 17 19 19 19 19 20 18 17 16 15 17 17 17 16 13 12 12 12 13 12 11 10 10 10 10 10 11 10 10 9 7 7 6 4 3 2 3 2
13 15 15 14 15 16 17 18 18 17 16 15 14 14 14 14 15 14 14 13 13 11 11 10 10 10 9 8 8 10 10 10 10 9 8 7 5 6 4 4 2 1 0
11 14 15 15 14 15 16 16 15 14 14 13 11 11 12 12 12 13 12 12 11 10 9 9 7 7 8 7 8 8 8 9 8 7 7 5 5 5 5 4 3 2 1
10 13 14 14 13 14 15 15 14 14 14 13 10 9 9 9 10 11 11 10 10 8 8 7 6 5 6 6 6 6 6 7 7 6 5 6 6 6 6 5 3 2 2
9 11 12 13 14 13 13 13 13 15 13 12 11 10 9 8 9 9 9 8 8 5 4 4 4 4 4 5 5 5 5 5 5 5 5 5 5 5 6 5 4 2 1
8 9 12 13 13 12 12 13 14 14 13 12 11 10 10 9 8 9 9 8 7 6 5 5 4 3 3 3 3 4 5 4 3 3 3 4 3 4 4 5 6 3 2
7 7 10 11 12 11 11 12 12 12 12 11 11 10 11 10 9 8 9 8 7 6 6 6 6 5 3 1 1 2 3 2 0 1 1 3 3 3 2 4 6 5 5
6 6 8 10 10 11 10 10 10 9 9 9 9 8 8 7 7 8 8 8 7 7 6 5 5 5 4 3 1 0 0 1 1 2 2 2 1 2 2 1 3 5 5
5 5 7 9 10 10 9 8 7 7 6 6 6 6 6 5 6 6 7 7 6 5 4 4 4 4 3 3 2 1 1 1 2 2 1 1 0 1 1 2 2 2 3
6 6 7 8 9 9 7 6 6 6 5 5 5 5 4 4 5 6 5 3 5 3 3 3 3 2 3 3 2 1 1 2 2 4 4 3 2 4 3 3 3 1 2
7 8 8 8 8 8 6 5 5 6 6 5 4 3 4 3 6 5 5 3 3 3 2 1 2 2 2 3 3 3 3 3 4 2 5 6 5 5 7 7 6 3 0
6 7 8 9 7 6 6 5 5 5 3 4 4 4 6 2 7 6 4 4 3 3 2 1 3 5 5 5 6 6 8 5 5 4 4 4 6 6 6 10 9 6 3
6 6 7 7 7 6 5 6 5 4 3 3 3 4 4 3 7 6 5 4 4 1 1 3 4 5 7 6 6 8 9 13 5 5 4 5 5 5 5 7 9 8 5
7 6 6 7 5 5 6 5 6 5 3 2 1 2 4 4 2 2 5 5 4 2 1 6 5 6 5 6 9 9 11 15 13 6 5 5 5 7 7 7 9 6 7
7 6 7 7 7 7 6 5 5 6 5 4 5 3 2 2 3 4 4 8 7 7 6 9 8 11 10 8 9 8 10 12 11 9 9 6 6 8 8 7 8 8 7
5 7 8 8 8 8 7 5 4 5 6 6 5 3 3 3 5 6 4 5 8 9 13 19 14 15 10 10 9 10 12 13 9 10 8 9 8 9 11 10 7 6 8
5 7 11 12 11 10 8 6 5 5 5 5 4 4 4 5 7 7 5 9 11 11 12 12 12 7 11 12 12 11 16 15 16 13 12 9 12 13 11 12 9 4 6
2 7 11 11 10 9 9 8 6 7 6 5 6 6 7 8 9 9 8 9 11 12 10 12 11 10 8 9 7 12 16 17 16 13 9 9 12 12 10 12 12 9 8
8 1 4 8 8 8 10 9 7 6 6 8 9 9 8 7 9 10 11 12 14 15 15 13 11 7 10 9 11 13 15 15 13 7 7 8 10 10 11 11 12 11 10
11 7 3 4 6 8 8 7 6 4 5 7 7 5 5 6 7 8 9 10 12 13 14 11 11 9 8 10 12 12 12 13 12 9 8 8 8 12 13 12 12 11 12
12 11 8 2 4 7 11 7 4 6 4 8 8 3 1 1 3 3 4 6 9 11 12 11 10 8 8 9 9 10 12 13 9 9 11 12 10 9 10 14 13 13 12
13 11 9 7 6 6 8 11 10 5 5 6 6 5 5 3 3 3 3 4 5 6 6 4 4 5 6 8 8 9 12 13 8 4 11 11 10 13 13 12 15 13 14
8 7 7 8 7 6 6 6 6 6 5 3 4 5 4 5 2 2 3 4 5 4 4 3 2 1 3 3 5 7 11 13 16 12 13 13 10 11 12 13 13 17 15
6 4 4 3 3 2 0 1 1 1 2 3 4 6 5 6 6 5 3 3 3 4 4 3 2 2 3 2 3 5 6 7 9 14 14 12 12 11 8 11 13 13 16
10 8 5 4 3 3 4 5 6 7 7 7 7 9 10 8 7 7 7 6 4 4 5 3 2 1 1 3 4 4 4 6 8 11 13 13 12 13 18 18 12 16 13
12 9 10 10 10 7 7 10 10 9 9 10 10 13 13 13 10 8 7 7 6 5 5 4 3 4 5 5 7 8 8 9 11 13 14 14 14 14 14 13 14 6 11

GFSSE_500_spd_291.txt.gz
Wind_Speed
14 15 15 14 14 18 20 20 20 19 18 19 17 16 15 15 14 13 13 13 12 11 11 12 11 12 10 9 10 10 9 9 9 9 8 8 9 9 8 6 4 5 4
13 14 15 14 15 17 18 18 18 18 17 17 16 14 13 12 12 11 10 10 11 10 10 11 11 9 9 8 9 8 9 9 9 8 8 8 9 7 6 5 4 4 2
11 12 13 14 14 15 15 14 14 15 14 15 13 13 11 12 11 9 9 8 8 9 10 9 8 8 7 7 7 7 7 8 7 8 11 7 8 6 5 5 4 3 3
9 11 12 13 12 13 13 13 12 13 13 12 10 10 10 10 10 9 8 7 7 7 6 6 7 5 6 5 5 5 6 6 6 6 6 5 7 7 5 5 4 3 2
7 9 11 12 11 12 12 11 11 11 11 10 9 9 8 8 9 8 8 6 5 4 4 4 5 4 3 5 6 5 4 4 5 5 5 5 6 6 6 4 4 3 2
7 6 10 11 11 12 13 11 11 12 10 9 9 8 8 8 8 8 7 6 6 5 5 4 4 3 3 3 4 4 3 2 3 4 4 5 3 4 5 6 5 5 3
6 5 7 9 9 9 10 11 11 11 10 10 9 8 8 8 8 7 7 6 5 5 5 5 5 5 3 3 2 2 3 3 3 3 1 1 2 3 3 4 5 5 5
5 3 4 6 7 8 8 9 9 8 8 7 7 7 7 6 7 6 6 6 4 4 4 4 4 4 4 4 3 3 3 3 3 1 1 2 2 2 3 3 3 3 4
3 5 3 3 4 4 5 5 4 4 5 4 4 4 4 4 5 5 5 6 5 3 3 3 3 4 4 4 4 5 4 4 3 4 4 3 3 4 2 1 2 2 2
4 5 4 4 4 3 2 1 2 3 3 2 2 2 3 3 4 4 4 2 4 2 2 3 3 4 5 4 4 3 5 5 4 4 5 5 4 6 6 5 3 2 2
4 5 6 6 5 4 2 2 2 2 2 1 1 2 3 4 5 6 4 3 1 2 4 2 4 5 6 6 5 7 9 6 7 6 5 7 6 7 5 8 7 6 4
6 6 6 6 6 5 4 3 2 3 2 1 1 1 0 3 7 6 4 4 4 2 1 2 2 4 7 7 8 10 12 14 6 8 6 6 6 6 6 7 9 7 6
5 7 8 8 7 6 5 4 4 4 2 2 1 0 1 1 2 6 6 5 5 3 2 3 3 5 7 6 7 11 12 15 13 5 7 6 5 5 6 5 7 8 6
6 7 9 9 8 7 7 5 6 6 6 5 4 1 2 2 4 4 6 5 5 5 6 9 12 8 7 8 10 9 11 12 15 16 7 5 6 5 5 6 6 9 8
9 9 8 8 10 8 7 6 6 7 7 7 6 4 3 2 4 3 3 7 8 10 10 12 15 13 10 11 10 10 12 18 17 10 8 9 7 6 5 7 8 7 8
7 10 10 10 11 11 9 6 6 6 7 7 6 4 5 6 5 6 6 6 7 9 11 13 15 12 17 11 9 9 10 13 15 15 11 13 12 9 6 5 7 4 8
4 7 10 11 11 11 9 8 7 6 5 5 6 6 5 6 6 8 7 8 10 11 11 9 12 11 11 9 11 15 10 14 16 15 11 11 7 8 10 7 6 5 5
3 8 9 10 9 8 10 9 7 6 5 7 7 8 8 8 8 10 10 10 12 14 12 12 13 11 6 5 7 7 11 12 12 12 10 8 7 9 10 10 10 7 8
7 1 2 7 6 7 9 8 6 6 6 9 9 10 12 12 11 10 10 11 11 12 12 14 13 8 6 7 8 9 10 12 11 9 8 7 9 8 8 8 11 10 9
13 10 5 3 4 5 6 7 6 6 6 8 10 9 9 11 11 11 11 11 12 12 10 11 10 10 7 7 7 8 9 11 11 11 8 9 10 9 9 10 11 11 11
16 13 11 6 2 7 8 7 7 7 5 4 3 3 4 5 6 7 6 6 7 8 9 8 9 10 7 7 8 7 8 10 7 10 10 13 13 14 11 8 12 12 12
14 14 11 9 8 6 4 6 9 8 4 1 2 3 3 5 4 4 4 6 5 4 5 3 6 6 6 7 6 5 7 7 7 6 14 10 14 14 12 11 11 13 12
10 10 9 8 7 5 3 1 3 3 3 2 3 2 4 9 7 5 5 6 5 3 3 2 3 4 4 5 4 5 6 6 7 9 11 12 13 15 12 14 13 9 13
11 8 6 6 6 5 5 5 5 4 5 6 5 6 8 9 10 11 9 8 8 6 3 2 3 3 3 4 4 4 5 6 8 9 12 13 13 13 15 14 16 11 10
11 9 8 7 6 7 9 9 10 11 11 11 10 12 12 13 13 14 12 11 12 11 8 5 4 4 4 5 6 6 7 6 7 10 13 16 16 14 14 14 12 3 14
11 9 8 11 12 10 10 10 12 13 14 15 14 15 15 16 17 16 16 14 12 12 12 10 7 7 7 8 9 10 11 11 11 12 14 15 16 17 15 14 11 9 6